AirNav   Pilot Hours Calculator
 
 1020 users online  

MU58 VA Medical Center Heliport
Kansas City, Missouri, USA

GOING TO KANSAS CITY?


FAA INFORMATION EFFECTIVE 31 DECEMBER 2020

Location

FAA Identifier: MU58
Lat/Long: 39-03-51.0180N 094-31-31.8350W
39-03.850300N 094-31.530583W
39.0641717,-94.5255097
(estimated)
Elevation: 941 ft. / 287 m (estimated)
Variation: 05E (1985)
Time zone: UTC -6 (UTC -5 during Daylight Saving Time)
Zip code: 64128

Heliport Operations

Heliport use: Private use, MEDICAL.
Activation date: 07/1985
Control tower: no
ARTCC: KANSAS CITY CENTER
FSS: COLUMBIA FLIGHT SERVICE STATION
Attendance: UNATNDD
Wind indicator: lighted
Segmented circle: no
Lights: FOR PERIMETER LGTS CALL 816-861-4700.

Heliport Communications

WX ASOS at MKC (5 nm NW): PHONE 816-329-2843
WX ASOS at LXT (10 nm SE): 124.175 (816-347-9807)
WX ASOS at OJC (16 nm SW): 119.35 (913-780-6969)
WX ASOS at MCI (17 nm NW): PHONE 816-329-2808
WX AWOS-3 at GPH (19 nm NE): 120.275 (816-407-3399)

Nearby radio navigation aids

VOR radial/distance  VOR name  Freq  Var
MCIr138/16.5KANSAS CITY VORTAC113.2505E
ANXr257/18.6NAPOLEON VORTAC114.0007E

Heliport Services

Runway Information

Helipad H1

Dimensions: 60 x 60 ft. / 18 x 18 m
Surface: concrete
Operational restrictions: NORTH/SOUTH INGRESS & ROUTES ENGRESS.
Latitude: 39-03.850300N
Longitude: 094-31.530583W
Elevation: 941.0 ft.
Traffic pattern: leftleft

Heliport Ownership and Management from official FAA records

Ownership: Publicly-owned
Owner: DEPT OF VETERANS AFFAIRS
4801 LINWOOD BLVD.
KANSAS CITY, MO 64128
Phone 816-861-4700
Manager: KENT HILL
4801 LINWOOD BLVD.
KANSAS CITY, MO 64128
Phone 816-861-4700

Additional Remarks

A40 HELIPAD LIGHTED WITH PERIMETER LIGHTS.
FOR CD CTC KANSAS CITY APCH AT 816-329-2710.

Instrument Procedures

There are no published instrument procedures at MU58.

Some nearby airports with instrument procedures:

KMKC - Charles B Wheeler Downtown Airport (5 nm NW)
KLXT - Lee's Summit Municipal Airport (10 nm SE)
3GV - East Kansas City Airport (15 nm E)
KOJC - Johnson County Exec Airport (16 nm SW)
KMCI - Kansas City International Airport (17 nm NW)
KGPH - Midwest NTL Air Center Airport (19 nm NE)
 
Loc | Ops | Rwys | IFR | FBO | Links
Com | Nav | Svcs | Stats | Notes
Area around MU58 (VA Medical Center Heliport)
 
Road maps at: MapQuest Bing Google
 
Aerial photo
No photo
 
Sectional chart

 
Airport distance calculator
Flying to VA Medical Center Heliport? Find the distance to fly.

From to MU58

Sunrise and sunset
Times for 24-Jan-2021
 Local
(UTC-6)
 Zulu
(UTC)
Morning civil twilight07:0313:03
Sunrise07:3213:32
Sunset17:2923:29
Evening civil twilight17:5723:57

Current date and time
Zulu (UTC)  25-Jan-2021 00:56:32
Local (UTC-6)  24-Jan-2021 18:56:32
 
METAR
KMKC 
5nm NW 
242354Z 03008KT 10SM OVC020 04/M01 A2999 RMK AO2 SLP158 T00391011 10050 20039 58009
KLXT 
9nm SE 
242353Z AUTO 06008KT 10SM OVC016 04/01 A2997 RMK AO2 PRESFR SLP154 T00390011 10044 20028 58014
KOJC 
16nm SW 
242353Z 06008KT 9SM OVC012 03/02 A2995 RMK AO2 SLP149 T00330022 10039 20028 58016
KMCI 
17nm NW 
242353Z 06007KT 10SM BKN021 OVC042 03/M01 A3000 RMK AO2 SLP163 T00331006 10044 20033 56006
KGPH 
19nm NE 
250035Z AUTO 04006KT 10SM OVC022 02/M01 A2999 RMK AO2
TAF
KMKC 
5nm NW 
241734Z 2418/2518 03005KT P6SM OVC012 FM250300 07009KT P6SM OVC011 FM250500 07009KT 6SM -DZ BR OVC008 FM250700 07010KT 5SM RA BR OVC007 FM251300 07013G21KT 6SM -RA BR OVC005
KMCI 
17nm NW 
241734Z 2418/2518 02007KT P6SM OVC016 FM250400 07011KT P6SM OVC013 FM250800 07012KT 4SM RA BR OVC008 FM251600 07016G26KT 6SM -RA BR OVC006
NOTAMs
Click for the latest NOTAMs
NOTAMs are issued by the DoD/FAA and will open in a separate window not controlled by AirNav.

 

 
 

Would you like to see your business listed on this page?

 If your business provides an interesting product or service to pilots, flight crews, aircraft, or users of the VA Medical Center Heliport, you should consider listing it here.  To start the listing process, click on the button below
 
Add a business
 

Other Pages about VA Medical Center Heliport

Update a link
 
Copyright © AirNav, LLC. All rights reserved. Privacy Policy  Contact